^^
Saratoga-Weather Station Historical Data
Daily Summary for June 7, 2020 Units:  English    Metric   Both
Daily Weekly Monthly Yearly Custom
  High: Low: Average:
Temperature: 73.6 °F 47.7 °F 61.9 °F
Dew Point: 50.7 °F 44.6 °F 47.5 °F
Humidity: 90% 40% 62%
Wind Speed: 6.9mph 0mph 1.5mph
Wind Gust: 10mph - -
Wind- - WSW
Pressure: 30.2 in 30 in -
Precipitation: 0 in    
Historical Graphs
 
 
Tabular Data for June 7, 2020
Time Temperature Dew Point Pressure Wind Wind Speed Wind Gust Humidity Rainfall Rate (Hourly) solar
00:02 57 °F 46.9 °F 30.2 in WSW 0.9 mph 1 mph 69% 0 in 0 W/m2
00:07 56.8 °F 46.8 °F 30.2 in WSW 0.9 mph 3 mph 69% 0 in 0 W/m2
00:12 57 °F 46.9 °F 30.2 in WSW 0.9 mph 2 mph 69% 0 in 0 W/m2
00:17 56.8 °F 47.1 °F 30.2 in WSW 0.9 mph 2 mph 70% 0 in 0 W/m2
00:22 56.8 °F 47.1 °F 30.2 in West 2 mph 2 mph 70% 0 in 0 W/m2
00:27 56.7 °F 46.9 °F 30.2 in WNW 2 mph 2 mph 70% 0 in 0 W/m2
00:33 56.5 °F 46.8 °F 30.2 in WSW 2 mph 2 mph 70% 0 in 0 W/m2
00:38 56.5 °F 46.8 °F 30.2 in WSW 2.9 mph 3 mph 70% 0 in 0 W/m2
00:43 56.5 °F 46.8 °F 30.2 in WSW 0.9 mph 4 mph 70% 0 in 0 W/m2
00:48 56.5 °F 46.4 °F 30.2 in WSW 2.9 mph 6 mph 69% 0 in 0 W/m2
00:53 56.7 °F 46.6 °F 30.2 in WSW 2.9 mph 7 mph 69% 0 in 0 W/m2
00:58 56.8 °F 46.8 °F 30.2 in West 6 mph 6 mph 69% 0 in 0 W/m2
01:03 56.8 °F 46.4 °F 30.2 in SW 2 mph 3 mph 68% 0 in 0 W/m2
01:08 56.8 °F 46.4 °F 30.2 in West 0.9 mph 3 mph 68% 0 in 0 W/m2
01:13 56.7 °F 46.2 °F 30.2 in West 2.9 mph 3 mph 68% 0 in 0 W/m2
01:18 56.5 °F 46.4 °F 30.2 in West 0.9 mph 3 mph 69% 0 in 0 W/m2
01:23 56.3 °F 46.2 °F 30.2 in Calm   3 mph 69% 0 in 0 W/m2
01:28 55.9 °F 46.2 °F 30.2 in West 0.9 mph 2 mph 70% 0 in 0 W/m2
01:33 55.8 °F 46 °F 30.2 in West 0.9 mph 1 mph 70% 0 in 0 W/m2
01:38 55.6 °F 46 °F 30.2 in Calm   1 mph 70% 0 in 0 W/m2
01:43 55.4 °F 46.2 °F 30.2 in West 0.9 mph 1 mph 71% 0 in 0 W/m2
01:48 55 °F 45.9 °F 30.2 in Calm   1 mph 71% 0 in 0 W/m2
01:53 55 °F 46.2 °F 30.2 in WSW 0.9 mph 2 mph 72% 0 in 0 W/m2
01:58 54.9 °F 46 °F 30.2 in WSW 0.9 mph 3 mph 72% 0 in 0 W/m2
02:03 54.7 °F 45.9 °F 30.2 in Calm   1 mph 72% 0 in 0 W/m2
02:08 54.5 °F 46 °F 30.2 in Calm   3 mph 73% 0 in 0 W/m2
02:13 54.1 °F 45.7 °F 30.2 in Calm     73% 0 in 0 W/m2
02:18 54 °F 45.9 °F 30.2 in Calm     74% 0 in 0 W/m2
02:23 53.8 °F 45.7 °F 30.2 in WSW 0.9 mph 1 mph 74% 0 in 0 W/m2
02:28 53.4 °F 45.7 °F 30.2 in Calm     75% 0 in 0 W/m2
02:33 53.1 °F 45.7 °F 30.2 in Calm     76% 0 in 0 W/m2
02:38 52.9 °F 45.9 °F 30.2 in Calm     77% 0 in 0 W/m2
02:43 52.5 °F 45.5 °F 30.2 in Calm     77% 0 in 0 W/m2
02:48 52.3 °F 45.7 °F 30.2 in Calm     78% 0 in 0 W/m2
02:53 52.2 °F 45.5 °F 30.2 in Calm     78% 0 in 0 W/m2
02:58 52.2 °F 45.9 °F 30.2 in Calm     79% 0 in 0 W/m2
03:03 52 °F 45.7 °F 30.2 in Calm   1 mph 79% 0 in 0 W/m2
03:09 51.6 °F 45.7 °F 30.2 in Calm     80% 0 in 0 W/m2
03:14 51.4 °F 45.5 °F 30.2 in Calm     80% 0 in 0 W/m2
03:19 51.3 °F 45.7 °F 30.2 in Calm     81% 0 in 0 W/m2
03:24 51.1 °F 45.5 °F 30.2 in Calm   2 mph 81% 0 in 0 W/m2
03:29 50.9 °F 45.7 °F 30.2 in Calm   1 mph 82% 0 in 0 W/m2
03:34 50.7 °F 45.5 °F 30.2 in Calm   2 mph 82% 0 in 0 W/m2
03:39 50.7 °F 45.5 °F 30.2 in Calm     82% 0 in 0 W/m2
03:44 50.5 °F 45.5 °F 30.2 in Calm     83% 0 in 0 W/m2
03:49 50.4 °F 45.3 °F 30.2 in Calm     83% 0 in 0 W/m2
03:54 50.2 °F 45.5 °F 30.2 in Calm     84% 0 in 0 W/m2
03:59 50 °F 45.3 °F 30.2 in Calm     84% 0 in 0 W/m2
04:04 49.8 °F 45.1 °F 30.2 in Calm     84% 0 in 0 W/m2
04:10 49.6 °F 45.3 °F 30.2 in Calm     85% 0 in 0 W/m2
04:15 49.6 °F 45.3 °F 30.2 in Calm     85% 0 in 0 W/m2
04:20 49.5 °F 45.1 °F 30.2 in Calm     85% 0 in 0 W/m2
04:25 49.3 °F 45.3 °F 30.2 in Calm     86% 0 in 0 W/m2
04:30 49.3 °F 45.3 °F 30.2 in Calm   1 mph 86% 0 in 0 W/m2
04:35 49.3 °F 45.3 °F 30.2 in Calm     86% 0 in 0 W/m2
04:40 48.9 °F 45 °F 30.2 in Calm     86% 0 in 0 W/m2
04:45 48.9 °F 45 °F 30.2 in Calm   1 mph 86% 0 in 0 W/m2
04:50 48.9 °F 45 °F 30.2 in Calm     86% 0 in 0 W/m2
04:55 48.7 °F 45 °F 30.2 in Calm   1 mph 87% 0 in 0 W/m2
05:00 48.7 °F 45 °F 30.2 in Calm     87% 0 in 0 W/m2
05:05 48.6 °F 44.8 °F 30.2 in Calm     87% 0 in 0 W/m2
05:10 48.4 °F 44.8 °F 30.2 in Calm   1 mph 87% 0 in 0 W/m2
05:15 48.2 °F 44.6 °F 30.2 in Calm     87% 0 in 0 W/m2
05:20 48 °F 44.6 °F 30.2 in Calm   1 mph 88% 0 in 0 W/m2
05:25 48 °F 44.6 °F 30.2 in Calm     88% 0 in 0 W/m2
05:30 47.8 °F 44.8 °F 30.2 in Calm     89% 0 in 0 W/m2
05:35 47.8 °F 44.8 °F 30.2 in Calm     89% 0 in 0 W/m2
05:40 47.7 °F 44.6 °F 30.2 in Calm     89% 0 in 5 W/m2
05:45 47.7 °F 44.6 °F 30.2 in Calm     89% 0 in 5 W/m2
05:50 47.7 °F 45 °F 30.2 in Calm     90% 0 in 7 W/m2
05:55 47.7 °F 44.6 °F 30.2 in Calm     89% 0 in 9 W/m2
06:00 47.7 °F 45 °F 30.2 in Calm     90% 0 in 11 W/m2
06:05 47.7 °F 45 °F 30.2 in Calm     90% 0 in 14 W/m2
06:10 47.7 °F 45 °F 30.2 in Calm     90% 0 in 14 W/m2
06:15 47.7 °F 45 °F 30.2 in Calm     90% 0 in 16 W/m2
06:20 47.8 °F 45 °F 30.2 in Calm     90% 0 in 18 W/m2
06:25 47.8 °F 45 °F 30.2 in Calm     90% 0 in 19 W/m2
06:31 48.2 °F 45.3 °F 30.2 in Calm     90% 0 in 21 W/m2
06:36 48.6 °F 45.7 °F 30.2 in Calm     90% 0 in 23 W/m2
06:41 48.6 °F 45.5 °F 30.2 in Calm     89% 0 in 25 W/m2
06:46 48.7 °F 45.7 °F 30.2 in Calm     89% 0 in 25 W/m2
06:51 48.7 °F 45.3 °F 30.2 in Calm     88% 0 in 26 W/m2
06:56 48.9 °F 45.5 °F 30.2 in Calm     88% 0 in 26 W/m2
07:01 49.3 °F 45.9 °F 30.2 in Calm   1 mph 88% 0 in 28 W/m2
07:06 49.6 °F 46.2 °F 30.2 in Calm   1 mph 88% 0 in 28 W/m2
07:11 50 °F 46.2 °F 30.2 in Calm     87% 0 in 30 W/m2
07:16 50.4 °F 46.4 °F 30.2 in Calm   1 mph 86% 0 in 30 W/m2
07:21 50.7 °F 46.8 °F 30.2 in NW 0.9 mph 2 mph 86% 0 in 32 W/m2
07:26 51.3 °F 46.9 °F 30.2 in WNW 0.9 mph 2 mph 85% 0 in 32 W/m2
07:31 51.4 °F 46.8 °F 30.2 in NNW 0.9 mph 2 mph 84% 0 in 33 W/m2
07:36 51.8 °F 46.8 °F 30.2 in NW 0.9 mph 2 mph 83% 0 in 33 W/m2
07:41 52.2 °F 46.8 °F 30.2 in Calm     82% 0 in 35 W/m2
07:46 52.5 °F 47.1 °F 30.2 in NW 0.9 mph 1 mph 82% 0 in 37 W/m2
07:51 52.9 °F 47.3 °F 30.2 in Calm   1 mph 81% 0 in 97 W/m2
07:56 53.1 °F 47.3 °F 30.2 in Calm     81% 0 in 241 W/m2
08:01 54 °F 48.2 °F 30.2 in Calm   1 mph 81% 0 in 258 W/m2
08:06 54.9 °F 48.7 °F 30.2 in East 0.9 mph 1 mph 80% 0 in 272 W/m2
08:11 55.9 °F 49.1 °F 30.2 in Calm   2 mph 78% 0 in 287 W/m2
08:16 56.8 °F 49.3 °F 30.2 in Calm   1 mph 76% 0 in 237 W/m2
08:21 57.7 °F 49.1 °F 30.2 in ENE 2 mph 3 mph 73% 0 in 121 W/m2
08:27 58.3 °F 49.3 °F 30.2 in East 2.9 mph 3 mph 72% 0 in 49 W/m2
08:32 59 °F 49.6 °F 30.2 in East 0.9 mph 1 mph 71% 0 in 49 W/m2
08:37 59.7 °F 50 °F 30.2 in Calm   1 mph 70% 0 in 49 W/m2
08:42 60.4 °F 49.8 °F 30.2 in ENE 0.9 mph 2 mph 68% 0 in 47 W/m2
08:47 61.2 °F 49.6 °F 30.2 in ENE 2 mph 2 mph 66% 0 in 47 W/m2
08:52 61.3 °F 50.4 °F 30.2 in ESE 2 mph 2 mph 67% 0 in 47 W/m2
08:57 61.9 °F 50 °F 30.2 in ENE 2 mph 2 mph 65% 0 in 49 W/m2
09:02 62.1 °F 49.8 °F 30.2 in ENE 2 mph 3 mph 64% 0 in 49 W/m2
09:07 62.2 °F 50 °F 30.2 in ENE 2 mph 2 mph 64% 0 in 62 W/m2
09:12 62.1 °F 49.8 °F 30.2 in Calm   4 mph 64% 0 in 214 W/m2
09:17 62.2 °F 50 °F 30.2 in ESE 0.9 mph 3 mph 64% 0 in 383 W/m2
09:22 62.2 °F 50 °F 30.2 in East 2.9 mph 3 mph 64% 0 in 459 W/m2
09:27 62.6 °F 50.2 °F 30.2 in SE 0.9 mph 3 mph 64% 0 in 487 W/m2
09:32 63 °F 49.8 °F 30.2 in NNE 0.9 mph 2 mph 62% 0 in 503 W/m2
09:37 62.8 °F 50 °F 30.2 in NE 2.9 mph 5 mph 63% 0 in 513 W/m2
09:42 63 °F 49.8 °F 30.2 in SE 2 mph 2 mph 62% 0 in 527 W/m2
09:47 63.3 °F 50.5 °F 30.2 in NE 2 mph 5 mph 63% 0 in 534 W/m2
09:52 63.3 °F 49.6 °F 30.2 in WNW 4 mph 4 mph 61% 0 in 550 W/m2
09:57 63.3 °F 49.6 °F 30.2 in SE 2 mph 5 mph 61% 0 in 559 W/m2
10:02 63.9 °F 49.6 °F 30.2 in SSW 0.9 mph 1 mph 60% 0 in 577 W/m2
10:07 64.2 °F 50.5 °F 30.2 in ENE 2 mph 4 mph 61% 0 in 582 W/m2
10:12 64.4 °F 50.7 °F 30.2 in NE 0.9 mph 1 mph 61% 0 in 60 W/m2
10:17 64.4 °F 49.8 °F 30.2 in ESE 0.9 mph 4 mph 59% 0 in 144 W/m2
10:22 64.4 °F 49.8 °F 30.2 in East 2.9 mph 3 mph 59% 0 in 631 W/m2
10:27 64.6 °F 50 °F 30.1 in ESE 2 mph 4 mph 59% 0 in 643 W/m2
10:32 64.6 °F 50 °F 30.1 in NNE 2 mph 3 mph 59% 0 in 661 W/m2
10:37 64.9 °F 49.3 °F 30.1 in NE 0.9 mph 4 mph 57% 0 in 675 W/m2
10:42 64.8 °F 49.1 °F 30.1 in Calm   3 mph 57% 0 in 700 W/m2
10:47 64.8 °F 49.6 °F 30.1 in North 0.9 mph 2 mph 58% 0 in 717 W/m2
10:52 65.1 °F 49.5 °F 30.1 in ENE 2 mph 8 mph 57% 0 in 735 W/m2
10:57 65.5 °F 49.3 °F 30.1 in ESE 2 mph 3 mph 56% 0 in 724 W/m2
11:02 65.8 °F 49.3 °F 30.1 in WNW 0.9 mph 8 mph 55% 0 in 795 W/m2
11:07 65.7 °F 49.1 °F 30.1 in WNW 0.9 mph 3 mph 55% 0 in 821 W/m2
11:12 65.8 °F 49.6 °F 30.1 in Calm   2 mph 56% 0 in 911 W/m2
11:17 66.2 °F 49.6 °F 30.1 in NE 2 mph 5 mph 55% 0 in 925 W/m2
11:22 65.8 °F 48.7 °F 30.1 in WSW 2.9 mph 4 mph 54% 0 in 374 W/m2
11:27 65.7 °F 48.6 °F 30.1 in West 2.9 mph 5 mph 54% 0 in 290 W/m2
11:32 64.9 °F 47.8 °F 30.1 in WNW 0.9 mph 5 mph 54% 0 in 339 W/m2
11:37 64.9 °F 48.4 °F 30.1 in WNW 2.9 mph 4 mph 55% 0 in 1074 W/m2
11:42 65.1 °F 48 °F 30.1 in NNW 2 mph 2 mph 54% 0 in 1072 W/m2
11:47 65.8 °F 48.7 °F 30.1 in NW 4 mph 5 mph 54% 0 in 763 W/m2
11:52 66.6 °F 48.4 °F 30.1 in South 2.9 mph 4 mph 52% 0 in 1063 W/m2
11:57 66.7 °F 48 °F 30.1 in NNW 4.9 mph 5 mph 51% 0 in 963 W/m2
12:02 66.9 °F 47.7 °F 30.1 in NE 0.9 mph 1 mph 50% 0 in 155 W/m2
12:07 66.7 °F 48 °F 30.1 in WSW 2.9 mph 7 mph 51% 0 in 120 W/m2
12:12 65.7 °F 47.5 °F 30.1 in West 2 mph 4 mph 52% 0 in 134 W/m2
12:18 65.1 °F 48 °F 30.1 in WNW 2 mph 3 mph 54% 0 in 167 W/m2
12:23 65.7 °F 48.6 °F 30.1 in NW 2 mph 4 mph 54% 0 in 928 W/m2
12:28 66.6 °F 47.3 °F 30.1 in WNW 2.9 mph 5 mph 50% 0 in 954 W/m2
12:33 66.9 °F 47.1 °F 30.1 in West 6 mph 8 mph 49% 0 in 979 W/m2
12:38 67.5 °F 45.3 °F 30.1 in NE 2.9 mph 5 mph 45% 0 in 1034 W/m2
12:43 68.4 °F 46.2 °F 30.1 in NNW 2 mph 8 mph 45% 0 in 1056 W/m2
12:48 68.2 °F 48.4 °F 30.1 in NW 4 mph 7 mph 49% 0 in 246 W/m2
12:53 67.3 °F 47.5 °F 30.1 in NNW 4 mph 10 mph 49% 0 in 229 W/m2
12:58 66.7 °F 46.9 °F 30.1 in WNW 2.9 mph 7 mph 49% 0 in 253 W/m2
13:03 66.6 °F 48.4 °F 30.1 in NW 2.9 mph 4 mph 52% 0 in 276 W/m2
13:08 66.6 °F 47.8 °F 30.1 in WNW 4 mph 8 mph 51% 0 in 350 W/m2
13:13 66.4 °F 47.7 °F 30.1 in WNW 2 mph 4 mph 51% 0 in 396 W/m2
13:18 66.9 °F 48.7 °F 30.1 in West 2.9 mph 8 mph 52% 0 in 1130 W/m2
13:23 67.5 °F 48.2 °F 30.1 in West 0.9 mph 8 mph 50% 0 in 274 W/m2
13:28 66.9 °F 47.1 °F 30.1 in West 2 mph 4 mph 49% 0 in 262 W/m2
13:33 66.7 °F 48.6 °F 30.1 in West 0.9 mph 8 mph 52% 0 in 229 W/m2
13:38 66.9 °F 47.7 °F 30.1 in WNW 2 mph 5 mph 50% 0 in 257 W/m2
13:43 66.9 °F 48.2 °F 30.1 in WNW 2.9 mph 4 mph 51% 0 in 295 W/m2
13:48 66.9 °F 47.7 °F 30.1 in WNW 2 mph 3 mph 50% 0 in 330 W/m2
13:53 67.5 °F 47.1 °F 30.1 in North 2 mph 4 mph 48% 0 in 359 W/m2
13:58 67.6 °F 46.8 °F 30.1 in NW 0.9 mph 4 mph 47% 0 in 520 W/m2
14:03 67.6 °F 47.3 °F 30.1 in West 6 mph 6 mph 48% 0 in 320 W/m2
14:08 67.6 °F 47.3 °F 30.1 in WNW 2 mph 5 mph 48% 0 in 311 W/m2
14:13 67.6 °F 47.3 °F 30.1 in West 2.9 mph 4 mph 48% 0 in 311 W/m2
14:18 67.6 °F 47.3 °F 30.1 in NNW 2 mph 3 mph 48% 0 in 360 W/m2
14:23 68.4 °F 47.3 °F 30.1 in NW 4.9 mph 7 mph 47% 0 in 253 W/m2
14:28 68.4 °F 46.8 °F 30.1 in NW 0.9 mph 4 mph 46% 0 in 225 W/m2
14:33 68.9 °F 47.3 °F 30.1 in West 2.9 mph 5 mph 46% 0 in 995 W/m2
14:38 69.4 °F 47.1 °F 30.1 in SW 0.9 mph 4 mph 45% 0 in 1018 W/m2
14:43 69.3 °F 46.4 °F 30.1 in West 2 mph 3 mph 44% 0 in 213 W/m2
14:48 68.7 °F 46.6 °F 30.1 in Calm   3 mph 45% 0 in 232 W/m2
14:53 68.5 °F 47.5 °F 30.1 in East 0.9 mph 2 mph 47% 0 in 232 W/m2
14:58 68.5 °F 47.5 °F 30.1 in WSW 2 mph 4 mph 47% 0 in 250 W/m2
15:03 68.7 °F 47.7 °F 30.1 in NW 2 mph 2 mph 47% 0 in 1048 W/m2
15:08 70 °F 48.2 °F 30.1 in SSE 4 mph 6 mph 46% 0 in 1014 W/m2
15:14 70.3 °F 46.8 °F 30.1 in NW 0.9 mph 5 mph 43% 0 in 204 W/m2
15:19 69.8 °F 46.2 °F 30.1 in NW 0.9 mph 3 mph 43% 0 in 267 W/m2
15:24 69.6 °F 46.8 °F 30.1 in Calm   2 mph 44% 0 in 264 W/m2
15:29 70.2 °F 46.6 °F 30.1 in West 6 mph 8 mph 43% 0 in 230 W/m2
15:34 70 °F 47.1 °F 30.1 in West 0.9 mph 3 mph 44% 0 in 272 W/m2
15:39 70.3 °F 47.5 °F 30.1 in WNW 2 mph 4 mph 44% 0 in 330 W/m2
15:44 70.9 °F 47.3 °F 30.1 in ENE 2 mph 4 mph 43% 0 in 1023 W/m2
15:49 72 °F 48.2 °F 30.1 in ENE 2 mph 5 mph 43% 0 in 1037 W/m2
15:54 72.9 °F 47.8 °F 30.1 in West 4 mph 5 mph 41% 0 in 946 W/m2
15:59 72.7 °F 47.7 °F 30.1 in SW 4 mph 4 mph 41% 0 in 956 W/m2
16:04 72.7 °F 47.7 °F 30.1 in WSW 6 mph 6 mph 41% 0 in 914 W/m2
16:09 72.3 °F 48 °F 30.1 in West 2.9 mph 4 mph 42% 0 in 881 W/m2
16:14 72.5 °F 47.5 °F 30.1 in West 2 mph 6 mph 41% 0 in 882 W/m2
16:19 72.7 °F 48.2 °F 30.1 in WNW 2.9 mph 5 mph 42% 0 in 863 W/m2
16:24 72.9 °F 49.1 °F 30.1 in WSW 4.9 mph 10 mph 43% 0 in 840 W/m2
16:29 72.1 °F 47.8 °F 30.1 in WSW 2.9 mph 4 mph 42% 0 in 130 W/m2
16:34 71.2 °F 47.7 °F 30.1 in West 2.9 mph 4 mph 43% 0 in 858 W/m2
16:39 71.1 °F 47.5 °F 30.1 in WNW 2 mph 4 mph 43% 0 in 160 W/m2
16:44 70.9 °F 47.3 °F 30.1 in WNW 2 mph 3 mph 43% 0 in 800 W/m2
16:49 71.2 °F 47.7 °F 30.1 in Calm   1 mph 43% 0 in 803 W/m2
16:54 72 °F 47.7 °F 30.1 in WSW 2 mph 5 mph 42% 0 in 761 W/m2
16:59 72.3 °F 48 °F 30.1 in NW 0.9 mph 9 mph 42% 0 in 738 W/m2
17:04 72.7 °F 48.9 °F 30.1 in WNW 4.9 mph 8 mph 43% 0 in 763 W/m2
17:09 72 °F 46.9 °F 30.1 in West 2 mph 4 mph 41% 0 in 206 W/m2
17:14 71.1 °F 46.2 °F 30.1 in West 4 mph 4 mph 41% 0 in 167 W/m2
17:19 70.5 °F 46.9 °F 30.1 in West 2.9 mph 4 mph 43% 0 in 172 W/m2
17:24 70.9 °F 47.3 °F 30.1 in West 2 mph 4 mph 43% 0 in 714 W/m2
17:29 71.6 °F 47.3 °F 30.1 in WSW 2.9 mph 5 mph 42% 0 in 679 W/m2
17:34 72.1 °F 47.8 °F 30.1 in WNW 2.9 mph 4 mph 42% 0 in 652 W/m2
17:39 72.5 °F 47.5 °F 30.1 in NW 2.9 mph 8 mph 41% 0 in 615 W/m2
17:44 72.7 °F 47.7 °F 30.1 in NW 6 mph 6 mph 41% 0 in 617 W/m2
17:49 72.9 °F 47.1 °F 30.1 in NNW 4.9 mph 9 mph 40% 0 in 619 W/m2
17:54 72.9 °F 47.8 °F 30.1 in NW 4.9 mph 8 mph 41% 0 in 645 W/m2
17:59 72.9 °F 47.1 °F 30.1 in NW 4.9 mph 7 mph 40% 0 in 415 W/m2
18:04 72.9 °F 48.4 °F 30.1 in NW 2 mph 8 mph 42% 0 in 591 W/m2
18:09 73 °F 48.6 °F 30.1 in Calm   2 mph 42% 0 in 573 W/m2
18:14 73.4 °F 47.7 °F 30.1 in NW 2.9 mph 10 mph 40% 0 in 541 W/m2
18:19 73.2 °F 48 °F 30.1 in West 0.9 mph 5 mph 41% 0 in 499 W/m2
18:24 73.6 °F 47.8 °F 30.1 in WNW 4 mph 5 mph 40% 0 in 480 W/m2
18:29 73.2 °F 47.5 °F 30.1 in West 6 mph 6 mph 40% 0 in 459 W/m2
18:34 72.1 °F 47.8 °F 30.1 in WNW 6.9 mph 7 mph 42% 0 in 60 W/m2
18:39 71.2 °F 48.7 °F 30.1 in WNW 2 mph 6 mph 45% 0 in 97 W/m2
18:44 71.4 °F 48.4 °F 30.1 in WNW 2.9 mph 3 mph 44% 0 in 366 W/m2
18:49 71.4 °F 47.8 °F 30.1 in SW 0.9 mph 3 mph 43% 0 in 343 W/m2
18:54 72 °F 48.2 °F 30.1 in WSW 0.9 mph 4 mph 43% 0 in 313 W/m2
18:59 72.5 °F 48.7 °F 30.1 in West 2 mph 4 mph 43% 0 in 295 W/m2
19:04 72.5 °F 48 °F 30.1 in NW 4 mph 4 mph 42% 0 in 274 W/m2
19:09 72.1 °F 47.8 °F 30.1 in WNW 4 mph 8 mph 42% 0 in 176 W/m2
19:14 72 °F 48.2 °F 30.1 in WSW 4 mph 7 mph 43% 0 in 285 W/m2
19:19 72.1 °F 47.8 °F 30 in WNW 2.9 mph 8 mph 42% 0 in 306 W/m2
19:24 72.1 °F 47.8 °F 30 in WNW 2.9 mph 5 mph 42% 0 in 155 W/m2
19:29 72.1 °F 47.1 °F 30 in WNW 0.9 mph 4 mph 41% 0 in 301 W/m2
19:34 72.1 °F 47.8 °F 30.1 in NW 0.9 mph 5 mph 42% 0 in 84 W/m2
19:39 72 °F 48.2 °F 30 in WSW 4 mph 6 mph 43% 0 in 93 W/m2
19:44 71.8 °F 48 °F 30.1 in WSW 4 mph 4 mph 43% 0 in 227 W/m2
19:49 71.8 °F 48.7 °F 30 in WNW 2 mph 3 mph 44% 0 in 186 W/m2
19:54 72 °F 48.2 °F 30 in WNW 2.9 mph 4 mph 43% 0 in 58 W/m2
19:59 72 °F 48.2 °F 30.1 in WNW 2 mph 6 mph 43% 0 in 162 W/m2
20:09 71.6 °F 47.8 °F 30 in WNW 2 mph 6 mph 43% 0 in 97 W/m2
20:14 71.4 °F 48.4 °F 30 in WSW 2.9 mph 6 mph 44% 0 in 139 W/m2
20:19 71.2 °F 48.7 °F 30 in West 2.9 mph 7 mph 45% 0 in 130 W/m2
20:24 70.7 °F 48.4 °F 30 in West 2.9 mph 4 mph 45% 0 in 93 W/m2
20:29 70.3 °F 48.6 °F 30 in West 4 mph 6 mph 46% 0 in 90 W/m2
20:34 70.2 °F 48.9 °F 30 in West 4 mph 4 mph 47% 0 in 88 W/m2
20:39 69.8 °F 48.7 °F 30 in WNW 2.9 mph 4 mph 47% 0 in 74 W/m2
20:44 69.6 °F 49.1 °F 30 in West 2 mph 4 mph 48% 0 in 62 W/m2
20:49 69.4 °F 48.9 °F 30 in WSW 2 mph 4 mph 48% 0 in 60 W/m2
20:54 69.3 °F 49.3 °F 30 in West 0.9 mph 4 mph 49% 0 in 47 W/m2
20:59 69.1 °F 49.1 °F 30 in WSW 2 mph 2 mph 49% 0 in 42 W/m2
21:04 68.7 °F 48.7 °F 30 in West 2 mph 4 mph 49% 0 in 35 W/m2
21:09 68.5 °F 49.1 °F 30 in WSW 0.9 mph 3 mph 50% 0 in 28 W/m2
21:14 68.2 °F 49.3 °F 30 in West 0.9 mph 4 mph 51% 0 in 21 W/m2
21:19 67.8 °F 49.1 °F 30 in West 0.9 mph 1 mph 51% 0 in 14 W/m2
21:24 67.5 °F 49.3 °F 30 in West 2 mph 3 mph 52% 0 in 11 W/m2
21:29 66.9 °F 49.3 °F 30 in WNW 0.9 mph 2 mph 53% 0 in 7 W/m2
21:34 66.6 °F 49.5 °F 30 in Calm   3 mph 54% 0 in 5 W/m2
21:39 66 °F 48.9 °F 30 in WSW 0.9 mph 2 mph 54% 0 in 0 W/m2
21:44 65.8 °F 49.6 °F 30 in Calm   1 mph 56% 0 in 0 W/m2
21:49 65.5 °F 49.3 °F 30 in Calm   2 mph 56% 0 in 0 W/m2
21:54 64.9 °F 49.3 °F 30 in WSW 0.9 mph 1 mph 57% 0 in 0 W/m2
21:59 64.8 °F 49.6 °F 30 in Calm     58% 0 in 0 W/m2
22:04 64.2 °F 49.6 °F 30 in WSW 0.9 mph 1 mph 59% 0 in 0 W/m2
22:09 63.9 °F 49.6 °F 30 in Calm     60% 0 in 0 W/m2
22:14 63.5 °F 49.8 °F 30 in Calm     61% 0 in 0 W/m2
22:19 63.1 °F 49.5 °F 30 in Calm     61% 0 in 0 W/m2
22:24 62.6 °F 49.5 °F 30 in Calm     62% 0 in 0 W/m2
22:29 62.2 °F 49.1 °F 30.1 in Calm     62% 0 in 0 W/m2
22:34 62.1 °F 49.3 °F 30.1 in Calm     63% 0 in 0 W/m2
22:39 61.7 °F 48.9 °F 30.1 in Calm     63% 0 in 0 W/m2
22:44 61.3 °F 49.1 °F 30.1 in Calm     64% 0 in 0 W/m2
22:50 61 °F 48.7 °F 30.1 in Calm     64% 0 in 0 W/m2
22:55 60.6 °F 48.7 °F 30.1 in Calm     65% 0 in 0 W/m2
23:00 60.4 °F 49.1 °F 30 in Calm     66% 0 in 0 W/m2
23:05 60.1 °F 48.7 °F 30.1 in Calm     66% 0 in 0 W/m2
23:10 59.9 °F 48.9 °F 30.1 in Calm     67% 0 in 0 W/m2
23:15 59.7 °F 48.7 °F 30.1 in Calm     67% 0 in 0 W/m2
23:20 59.5 °F 48.6 °F 30.1 in Calm     67% 0 in 0 W/m2
23:25 59.4 °F 48.7 °F 30.1 in Calm     68% 0 in 0 W/m2
23:30 59.2 °F 48.6 °F 30 in Calm     68% 0 in 0 W/m2
23:35 58.8 °F 48.7 °F 30 in Calm     69% 0 in 0 W/m2
23:40 58.6 °F 48.6 °F 30 in Calm     69% 0 in 0 W/m2
23:45 58.5 °F 48.7 °F 30.1 in Calm     70% 0 in 0 W/m2
23:50 58.5 °F 49.1 °F 30.1 in Calm     71% 0 in 0 W/m2
23:55 58.3 °F 48.9 °F 30.1 in Calm     71% 0 in 0 W/m2
Juneau County Weather
Compliments of Weather Underground - 4 mb